Location: Chemnitz
(49.5500°N, 11.5830°E)
Time: 08:42:42
(UTC+01:00)

Amateur Radio Satellites - All Passes

Search period start: 20 November 2017 08:12
Search period end: 21 November 2017 08:12
Location: Chemnitz, 49.5500°N, 11.5830°E

Satellite Date Start Highest point End Downlink Frequencies (MHz)
Time Altitude Azimuth
SEEDS 20 Nov 08:17:21 08:21:28 51° 289° (WNW) 08:25:35 437.485
PRISM 20 Nov 08:20:12 08:22:27 14° 58° (ENE) 08:24:43 437.425
XW-2A 20 Nov 08:21:22 08:24:43 74° 285° (WNW) 08:28:04 145.665 - 145.685
CUBEBUG 2 20 Nov 08:24:42 08:28:44 45° 290° (WNW) 08:32:41 437.445
UNISAT 6 20 Nov 08:27:16 08:31:31 40° 68° (ENE) 08:35:42 437.425
AAUSAT CUBESAT 2 20 Nov 08:28:35 08:32:47 82° 286° (WNW) 08:36:59 437.432
TIGRISAT 20 Nov 08:32:01 08:36:17 41° 68° (ENE) 08:40:29 435.000
AO-73 20 Nov 08:33:49 08:37:57 65° 101° (ESE) 08:42:04 145.935
PCSat 20 Nov 08:46:14 08:51:33 52° 47° (NE) 08:56:51 145.827
HO-68 20 Nov 08:47:20 08:54:05 45° 299° (WNW) 09:00:48 435.675
Oscar 11 20 Nov 08:51:51 08:56:11 69° 102° (ESE) 09:00:30 .
Max Valier Satellite 20 Nov 09:03:46 09:05:47 14° 90° (E) 09:07:47 145.860
EO-88 20 Nov 09:06:33 09:07:23 11° 88° (E) 09:08:13 145.990 - 145.960
FO-29 20 Nov 09:10:50 09:16:46 32° 270° (W) 09:23:19 435.910
DELFI C3 20 Nov 09:13:11 09:16:36 26° 94° (E) 09:20:00 145.870
BEESAT 2 20 Nov 09:14:51 09:15:08 10° 9° (N) 09:15:24 435.950
ZACube-1 20 Nov 09:18:15 09:22:08 40° 291° (WNW) 09:26:00 437.345
AO-85 20 Nov 09:18:31 09:19:43 11° 3° (N) 09:20:57 145.980
CUTE 1.7 + AOD 2 20 Nov 09:22:28 09:23:05 10° 305° (NW) 09:23:42 437.475
AIST 2D 20 Nov 09:25:02 09:27:08 15° 63° (ENE) 09:29:15 435.315
UWE-3 20 Nov 09:25:16 09:28:25 21° 297° (WNW) 09:31:33 435.000/436.395/437.385
YUBILEINY 20 Nov 09:32:48 09:35:14 11° 322° (NW) 09:37:42 435.215
BEESAT 3 20 Nov 09:43:11 09:45:59 18° 29° (NNE) 09:48:46 437.485
PRISM 20 Nov 09:53:02 09:57:10 77° 257° (WSW) 10:01:21 437.425
UNISAT 6 20 Nov 10:04:29 10:08:20 27° 266° (W) 10:12:09 437.425
DUCHIFAT 1 20 Nov 10:04:34 10:07:13 16° 59° (ENE) 10:09:51 145.980
AAUSAT CUBESAT 2 20 Nov 10:06:08 10:07:32 11° 304° (WNW) 10:08:56 437.432
TIGRISAT 20 Nov 10:09:16 10:13:06 26° 266° (W) 10:16:53 435.000
EO-79 20 Nov 10:09:22 10:12:39 22° 63° (ENE) 10:15:56 145.935-145.965
AO-73 20 Nov 10:11:13 10:13:44 16° 300° (WNW) 10:16:14 145.935
NANOSAT C BR1 20 Nov 10:13:36 10:16:51 22° 62° (ENE) 10:20:05 145.865
POLYITAN 1 20 Nov 10:23:48 10:27:29 29° 66° (ENE) 10:31:10 437.675
Oscar 11 20 Nov 10:29:08 10:31:50 16° 301° (WNW) 10:34:32 .
PCSat 20 Nov 10:29:59 10:34:46 32° 248° (WSW) 10:39:29 145.827
Max Valier Satellite 20 Nov 10:36:20 10:39:55 52° 288° (WNW) 10:43:29 145.860
HO-68 20 Nov 10:37:06 10:40:05 13° 322° (NW) 10:43:05 435.675
EO-88 20 Nov 10:37:50 10:41:29 71° 285° (WNW) 10:45:07 145.990 - 145.960
QB50P2 20 Nov 10:46:27 10:50:34 52° 71° (ENE) 10:54:43 145.880/145.840
DELFI C3 20 Nov 10:47:46 10:51:22 32° 292° (WNW) 10:54:57 145.870
BEESAT 2 20 Nov 10:51:03 10:54:18 22° 33° (NNE) 10:57:32 435.950
AO-7 20 Nov 10:55:08 10:56:28 10° 21° (NNE) 10:57:48 .
AIST 2D 20 Nov 10:56:38 10:59:58 45° 261° (W) 11:03:21 435.315
AO-85 20 Nov 10:58:35 11:01:49 19° 27° (NNE) 11:05:14 145.980
BUGSAT 1 20 Nov 11:02:22 11:05:07 17° 60° (ENE) 11:07:51 437.445
LO-87 20 Nov 11:06:47 11:10:03 33° 97° (E) 11:13:17 145.935 - 145.965
BEESAT 3 20 Nov 11:20:08 11:24:09 81° 50° (NE) 11:28:03 437.485
Oscar 19 20 Nov 11:22:01 11:25:41 20° 57° (ENE) 11:29:22 437.125/150
SPROUT 20 Nov 11:27:08 11:28:38 12° 87° (E) 11:30:09 437.525
ESTCUBE 1 20 Nov 11:27:22 11:31:43 43° 98° (E) 11:36:01 437.505/2401.250
Gurwin Techsat 1B 20 Nov 11:36:33 11:40:25 21° 57° (ENE) 11:44:18 435.225
DUCHIFAT 1 20 Nov 11:38:13 11:42:24 66° 258° (WSW) 11:46:37 145.980
EO-79 20 Nov 11:44:03 11:48:09 46° 261° (W) 11:52:15 145.935-145.965
NANOSAT C BR1 20 Nov 11:48:12 11:52:17 46° 261° (W) 11:56:23 145.865
VELOX 1 20 Nov 11:54:48 11:57:26 15° 89° (E) 12:00:02 145.980
POLYITAN 1 20 Nov 11:59:22 12:03:11 33° 263° (W) 12:07:03 437.675
QB50P2 20 Nov 12:23:41 12:26:40 18° 269° (W) 12:29:39 145.880/145.840
M-CUBED/EXP-1 PRIME 20 Nov 12:24:52 12:27:25 18° 53° (NE) 12:30:06 437.505
BEESAT 2 20 Nov 12:28:24 12:32:27 72° 234° (SW) 12:36:26 435.950
BUGSAT 1 20 Nov 12:35:53 12:40:03 61° 258° (WSW) 12:44:12 437.445
AO-85 20 Nov 12:38:25 12:42:58 69° 48° (NE) 12:47:54 145.980
AO-7 20 Nov 12:39:49 12:46:28 28° 46° (NE) 12:53:07 .
LO-87 20 Nov 12:40:34 12:43:17 21° 295° (WNW) 12:45:58 145.935 - 145.965
DX 1 20 Nov 12:45:11 12:46:47 12° 87° (E) 12:48:24 434.975-435.025
BEESAT 3 20 Nov 12:59:10 13:01:05 13° 249° (WSW) 13:02:59 437.485
Oscar 19 20 Nov 12:59:23 13:04:29 73° 257° (WSW) 13:09:38 437.125/150
SPROUT 20 Nov 13:00:51 13:05:09 84° 283° (WNW) 13:09:23 437.525
ESTCUBE 1 20 Nov 13:04:34 13:08:19 26° 297° (WNW) 13:12:03 437.505/2401.250
ITAMSAT 1 20 Nov 13:12:37 13:15:35 15° 53° (NE) 13:18:33 435.822/435.867
Gurwin Techsat 1B 20 Nov 13:14:30 13:19:49 75° 256° (WSW) 13:25:11 435.225
50 SAT 20 Nov 13:16:43 13:19:17 21° 95° (E) 13:21:49 437.505
UKube-1 20 Nov 13:28:37 13:31:52 20° 92° (E) 13:35:05 .
O/OREOS (USA 219) 20 Nov 13:29:52 13:34:05 37° 107° (ESE) 13:38:19 437.305
VELOX 1 20 Nov 13:29:54 13:34:21 70° 288° (WNW) 13:38:47 145.980
M-CUBED/EXP-1 PRIME 20 Nov 13:57:55 14:01:25 52° 254° (WSW) 14:05:14 437.505
DX 1 20 Nov 14:19:11 14:23:36 87° 290° (WNW) 14:27:59 434.975-435.025
AO-85 20 Nov 14:19:30 14:23:04 22° 245° (WSW) 14:26:48 145.980
DOVE 4 20 Nov 14:21:35 14:23:09 11° 50° (NE) 14:24:43 437.250
MOZHAYETS 4 20 Nov 14:28:06 14:31:12 18° 90° (E) 14:34:18
AO-7 20 Nov 14:29:59 14:38:18 89° 65° (ENE) 14:46:40 .
SPROUT 20 Nov 14:38:41 14:40:19 12° 304° (NW) 14:41:57 437.525
Oscar 19 20 Nov 14:43:29 14:44:44 11° 276° (W) 14:45:59 437.125/150
50 SAT 20 Nov 14:48:38 14:51:22 26° 293° (WNW) 14:54:06 437.505
ITAMSAT 1 20 Nov 14:49:00 14:54:14 79° 73° (ENE) 14:59:30 435.822/435.867
Gurwin Techsat 1B 20 Nov 14:58:49 15:00:42 12° 275° (W) 15:02:36 435.225
UKube-1 20 Nov 15:03:57 15:08:09 49° 291° (WNW) 15:12:19 .
VELOX 1 20 Nov 15:08:41 15:09:58 11° 307° (NW) 15:11:15 145.980
O/OREOS (USA 219) 20 Nov 15:09:22 15:13:32 33° 307° (NW) 15:17:44 437.305
BEESAT 20 Nov 15:32:03 15:36:43 51° 100° (E) 15:41:19 436.000
YUBILEINY 20 Nov 15:34:09 15:42:11 36° 64° (ENE) 15:50:07 435.215
NO-84 20 Nov 15:35:17 15:38:30 27° 134° (SE) 15:41:56 435.350 FM
ITUPSAT 1 20 Nov 15:40:56 15:45:40 60° 102° (ESE) 15:50:21 437.325
HO-68 20 Nov 15:49:12 15:53:00 15° 41° (NE) 15:56:47 435.675
XW-2C 20 Nov 15:53:32 15:54:18 11° 58° (ENE) 15:55:04 145.795 - 145.815
LilacSat-2 20 Nov 15:53:35 15:54:51 11° 58° (ENE) 15:56:07 437.200
DOVE 4 20 Nov 15:54:44 15:59:41 57° 70° (ENE) 16:04:51 437.250
DX 1 20 Nov 15:57:02 15:59:06 13° 305° (NW) 16:01:11 434.975-435.025
MOZHAYETS 4 20 Nov 16:04:15 16:08:46 61° 288° (WNW) 16:13:16
XW-2F 20 Nov 16:04:18 16:05:58 13° 59° (ENE) 16:07:38 145.980 - 146.000
CUBESAT XI-V 20 Nov 16:12:40 16:17:11 45° 98° (E) 16:21:41 437.345
CUTE-I 20 Nov 16:14:21 16:18:33 24° 58° (ENE) 16:22:46 437.470
AO-7 20 Nov 16:25:47 16:32:07 24° 270° (W) 16:38:32 .
KKS-1 20 Nov 16:28:19 16:31:08 16° 90° (E) 16:33:56 437.445
ITAMSAT 1 20 Nov 16:30:59 16:34:20 17° 271° (W) 16:37:41 435.822/435.867
KAITUO 1B 20 Nov 16:32:56 16:35:36 19° 64° (ENE) 16:38:16 145.475/437.950
XW-2D 20 Nov 16:44:13 16:47:35 33° 69° (ENE) 16:51:00 145.860 - 145.880
STARS 20 Nov 16:56:15 16:58:15 13° 88° (E) 17:00:16 437.465
XW-2B 20 Nov 16:58:46 17:02:20 46° 71° (ENE) 17:05:57 145.730 - 145.750
CUTE 1.7 + AOD 2 20 Nov 17:06:05 17:08:56 18° 61° (ENE) 17:11:48 437.475
BEESAT 20 Nov 17:10:22 17:14:12 24° 299° (WNW) 17:17:59 436.000
NO-84 20 Nov 17:11:40 17:15:33 72° 335° (NNW) 17:19:43 435.350 FM
NUDT-PHONESAT 20 Nov 17:18:21 17:21:54 54° 72° (ENE) 17:25:29 437.300
ITUPSAT 1 20 Nov 17:19:31 17:23:06 21° 301° (WNW) 17:26:39 437.325
XW-2C 20 Nov 17:24:07 17:27:51 89° 250° (WSW) 17:31:38 145.795 - 145.815
LilacSat-2 20 Nov 17:24:47 17:28:32 82° 259° (W) 17:32:20 437.200
YUBILEINY 20 Nov 17:30:52 17:39:36 65° 267° (W) 17:48:16 435.215
HO-68 20 Nov 17:32:17 17:39:13 53° 63° (ENE) 17:46:11 435.675
DOVE 4 20 Nov 17:33:39 17:37:43 24° 270° (W) 17:41:55 437.250
XW-2F 20 Nov 17:35:51 17:39:34 70° 259° (W) 17:43:18 145.980 - 146.000
SEEDS 20 Nov 17:38:05 17:41:22 23° 63° (ENE) 17:44:40 437.485
MOZHAYETS 4 20 Nov 17:44:44 17:45:01 10° 308° (NW) 17:45:16
AAUSAT CUBESAT 2 20 Nov 17:49:10 17:51:28 15° 59° (ENE) 17:53:47 437.432
CUBEBUG 2 20 Nov 17:50:15 17:54:14 30° 66° (ENE) 17:58:07 437.445
CUBESAT XI-V 20 Nov 17:50:27 17:54:21 26° 297° (WNW) 17:58:13 437.345
CUTE-I 20 Nov 17:52:51 17:58:10 65° 258° (WSW) 18:03:33 437.470
AO-73 20 Nov 18:00:03 18:01:39 12° 57° (ENE) 18:03:16 145.935
KKS-1 20 Nov 18:03:41 18:08:08 65° 288° (WNW) 18:12:33 437.445
KAITUO 1B 20 Nov 18:05:50 18:09:19 40° 262° (W) 18:12:50 145.475/437.950
RS-15 20 Nov 18:12:59 18:23:57 41° 108° (ESE) 18:34:51 29.354- 29.394
Oscar 11 20 Nov 18:17:19 18:19:13 13° 57° (ENE) 18:21:06 .
XW-2D 20 Nov 18:18:53 18:21:51 22° 267° (W) 18:24:50 145.860 - 145.880
STRAND 1 20 Nov 18:21:37 18:23:50 13° 86° (E) 18:26:03 437.568
STARS 20 Nov 18:30:45 18:35:11 80° 288° (WNW) 18:39:34 437.465
XW-2B 20 Nov 18:34:21 18:36:46 16° 269° (W) 18:39:12 145.730 - 145.750
CUTE 1.7 + AOD 2 20 Nov 18:40:13 18:44:21 58° 259° (W) 18:48:33 437.475
ZACube-1 20 Nov 18:41:56 18:45:43 31° 66° (ENE) 18:49:26 437.345
UWE-3 20 Nov 18:48:42 18:53:06 63° 73° (ENE) 18:57:24 435.000/436.395/437.385
NO-84 20 Nov 18:49:32 18:53:22 38° 356° (N) 18:57:22 435.350 FM
NUDT-PHONESAT 20 Nov 18:54:11 18:56:05 14° 271° (W) 18:57:59 437.300
XW-2A 20 Nov 18:55:59 18:59:17 69° 74° (ENE) 19:02:36 145.665 - 145.685
SEEDS 20 Nov 19:12:51 19:16:49 42° 262° (W) 19:20:50 437.485
HO-68 20 Nov 19:20:33 19:27:10 38° 264° (W) 19:33:50 435.675
AAUSAT CUBESAT 2 20 Nov 19:22:16 19:26:23 73° 257° (WSW) 19:30:33 437.432
CUBEBUG 2 20 Nov 19:26:35 19:30:48 35° 264° (W) 19:34:54 437.445
YUBILEINY 20 Nov 19:30:05 19:34:32 15° 290° (WNW) 19:39:01 435.215
AO-73 20 Nov 19:32:56 19:37:15 85° 71° (ENE) 19:41:29 145.935
KKS-1 20 Nov 19:42:55 19:43:49 11° 308° (NW) 19:44:44 437.445
Max Valier Satellite 20 Nov 19:47:07 19:48:54 13° 60° (ENE) 19:50:42 145.860
EO-88 20 Nov 19:49:20 19:49:33 10° 58° (ENE) 19:49:45 145.990 - 145.960
Oscar 11 20 Nov 19:50:23 19:54:41 88° 74° (ENE) 19:59:01 .
STRAND 1 20 Nov 19:58:41 20:03:51 83° 106° (ESE) 20:08:58 437.568
DELFI C3 20 Nov 20:02:16 20:05:40 27° 66° (ENE) 20:09:04 145.870
STARS 20 Nov 20:08:59 20:10:47 12° 305° (NW) 20:12:35 437.465
FO-29 20 Nov 20:14:10 20:21:36 43° 94° (E) 20:28:43 435.910
ZACube-1 20 Nov 20:18:06 20:21:57 31° 264° (W) 20:25:46 437.345
RS-15 20 Nov 20:23:14 20:35:39 78° 313° (NW) 20:47:53 29.354- 29.394
UWE-3 20 Nov 20:27:09 20:29:57 16° 270° (W) 20:32:42 435.000/436.395/437.385
NO-84 20 Nov 20:27:14 20:31:20 50° 17° (NNE) 20:35:30 435.350 FM
ESTCUBE 1 20 Nov 20:58:23 20:59:11 10° 53° (NE) 21:00:00 437.505/2401.250
AO-73 20 Nov 21:12:38 21:14:03 11° 273° (W) 21:15:27 145.935
Max Valier Satellite 20 Nov 21:18:38 21:22:15 64° 258° (WSW) 21:25:54 145.860
EO-88 20 Nov 21:18:56 21:22:33 89° 260° (W) 21:26:13 145.990 - 145.960
nSIGHT-1 20 Nov 21:20:09 21:22:43 22° 143° (SE) 21:25:17 .
Oscar 11 20 Nov 21:30:10 21:31:28 11° 274° (W) 21:32:46 .
PRISM 20 Nov 21:32:04 21:33:17 11° 87° (E) 21:34:29 437.425
DELFI C3 20 Nov 21:36:47 21:40:20 31° 264° (W) 21:43:55 145.870
STRAND 1 20 Nov 21:39:00 21:42:24 18° 304° (NW) 21:45:47 437.568
SO-50 20 Nov 21:40:45 21:44:22 25° 116° (ESE) 21:48:02 436.795
LO-87 20 Nov 21:46:35 21:49:41 27° 67° (ENE) 21:52:47 145.935 - 145.965
UNISAT 6 20 Nov 21:50:49 21:54:58 46° 99° (E) 21:59:04 437.425
TIGRISAT 20 Nov 21:55:24 21:59:34 47° 99° (E) 22:03:39 435.000
O/OREOS (USA 219) 20 Nov 21:56:22 22:00:07 24° 48° (NE) 22:03:49 437.305
FO-29 20 Nov 21:59:09 22:06:45 54° 295° (WNW) 22:14:05 435.910
ISS 20 Nov 22:00:53 22:03:56 36° 149° (SSE) 22:06:59 437.550
NO-84 20 Nov 22:04:39 22:08:50 57° 216° (SW) 22:13:00 435.350 FM
SPROUT 20 Nov 22:23:50 22:26:37 17° 60° (ENE) 22:29:25 437.525
ESTCUBE 1 20 Nov 22:30:41 22:35:07 65° 72° (ENE) 22:39:35 437.505/2401.250
RS-15 20 Nov 22:38:43 22:50:16 43° 343° (NNW) 23:01:30 29.354- 29.394
nSIGHT-1 20 Nov 22:55:26 22:58:39 88° 158° (SSE) 23:01:52 .
VELOX 1 20 Nov 22:55:36 22:59:09 24° 62° (ENE) 23:02:43 145.980
PRISM 20 Nov 23:04:57 23:09:10 86° 282° (WNW) 23:13:19 437.425
DUCHIFAT 1 20 Nov 23:18:58 23:21:15 14° 89° (E) 23:23:32 145.980
LO-87 20 Nov 23:20:00 23:23:03 25° 265° (W) 23:26:08 145.935 - 145.965
SO-50 20 Nov 23:20:08 23:24:32 55° 316° (NW) 23:29:01 436.795
EO-79 20 Nov 23:24:38 23:27:50 21° 92° (E) 23:31:00 145.935-145.965
UNISAT 6 20 Nov 23:28:06 23:31:26 22° 298° (WNW) 23:34:42 437.425
NANOSAT C BR1 20 Nov 23:28:26 23:31:34 20° 92° (E) 23:34:41 145.865
TIGRISAT 20 Nov 23:32:43 23:35:59 22° 298° (WNW) 23:39:13 435.000
PCSat 20 Nov 23:34:06 23:37:36 18° 106° (ESE) 23:41:06 145.827
O/OREOS (USA 219) 20 Nov 23:35:23 23:39:52 55° 249° (WSW) 23:44:16 437.305
ISS 20 Nov 23:37:02 23:40:19 70° 348° (NNW) 23:43:35 437.550
POLYITAN 1 20 Nov 23:39:25 23:43:04 28° 95° (E) 23:46:42 437.675
NO-84 20 Nov 23:43:41 23:45:28 12° 234° (SW) 23:47:14 435.350 FM
DX 1 20 Nov 23:43:57 23:47:04 19° 60° (ENE) 23:50:12 434.975-435.025
FO-29 20 Nov 23:45:40 23:50:07 17° 316° (NW) 23:54:32 435.910
50 SAT 20 Nov 23:48:19 23:50:18 15° 63° (ENE) 23:52:19 437.505
AIST 2D 20 Nov 23:49:53 23:53:24 71° 285° (WNW) 23:56:55 435.315
SPROUT 20 Nov 23:57:47 00:02:03 65° 258° (WSW) 00:06:20 437.525
QB50P2 21 Nov 00:02:23 00:06:31 53° 100° (E) 00:10:38 145.880/145.840
ESTCUBE 1 21 Nov 00:09:32 00:12:22 16° 271° (W) 00:15:13 437.505/2401.250
BUGSAT 1 21 Nov 00:14:34 00:16:40 14° 89° (E) 00:18:44 437.445
UKube-1 21 Nov 00:26:44 00:30:30 30° 65° (ENE) 00:34:18 .
VELOX 1 21 Nov 00:31:04 00:35:20 46° 261° (W) 00:39:40 145.980
nSIGHT-1 21 Nov 00:31:52 00:35:02 56° 1° (N) 00:38:12 .
PRISM 21 Nov 00:42:06 00:43:44 12° 304° (NW) 00:45:23 437.425
DUCHIFAT 1 21 Nov 00:53:12 00:57:21 66° 287° (WNW) 01:01:28 145.980
RS-15 21 Nov 00:54:55 01:06:22 43° 17° (NNE) 01:17:18 29.354- 29.394
EO-79 21 Nov 00:59:48 01:03:49 45° 290° (WNW) 01:07:48 145.935-145.965
SO-50 21 Nov 01:02:55 01:05:58 17° 338° (NNW) 01:09:03 436.795
NANOSAT C BR1 21 Nov 01:03:30 01:07:31 46° 290° (WNW) 01:11:30 145.865
Oscar 19 21 Nov 01:06:43 01:11:11 29° 94° (E) 01:15:38 437.125/150
BEESAT 21 Nov 01:07:08 01:10:01 16° 56° (NE) 01:12:53 436.000
ISS 21 Nov 01:13:44 01:16:59 62° 7° (N) 01:20:14 437.550
PCSat 21 Nov 01:14:51 01:20:17 87° 305° (NW) 01:25:45 145.827
POLYITAN 1 21 Nov 01:15:07 01:18:52 33° 294° (WNW) 01:22:37 437.675
ITUPSAT 1 21 Nov 01:15:54 01:19:10 19° 57° (ENE) 01:22:25 437.325
DX 1 21 Nov 01:18:33 01:22:52 59° 259° (WSW) 01:27:13 434.975-435.025
50 SAT 21 Nov 01:19:03 01:22:07 39° 261° (W) 01:25:13 437.505
Gurwin Techsat 1B 21 Nov 01:26:31 01:31:15 31° 95° (E) 01:35:56 435.225
MOZHAYETS 4 21 Nov 01:33:44 01:37:37 28° 64° (ENE) 01:41:32
QB50P2 21 Nov 01:38:57 01:41:57 19° 299° (WNW) 01:44:57 145.880/145.840
CUBESAT XI-V 21 Nov 01:46:20 01:47:53 12° 54° (NE) 01:49:26 437.345
BUGSAT 1 21 Nov 01:48:26 01:52:28 65° 288° (WNW) 01:56:27 437.445
UKube-1 21 Nov 02:02:32 02:06:27 33° 263° (W) 02:10:25 .
nSIGHT-1 21 Nov 02:08:11 02:11:23 78° 202° (SSW) 02:14:35 .
AO-7 21 Nov 02:27:34 02:33:46 22° 89° (E) 02:39:55 .
BEESAT 21 Nov 02:42:22 02:47:09 86° 256° (WSW) 02:51:58 436.000
Oscar 19 21 Nov 02:45:46 02:50:42 46° 293° (WNW) 02:55:36 437.125/150
SO-50 21 Nov 02:46:18 02:48:13 12° 3° (N) 02:50:11 436.795
ISS 21 Nov 02:50:17 02:53:28 51° 208° (SSW) 02:56:38 437.550
BEESAT 3 21 Nov 02:50:26 02:54:00 32° 119° (ESE) 02:57:35 437.485
ITUPSAT 1 21 Nov 02:51:41 02:56:28 73° 256° (WSW) 03:01:16 437.325
ITAMSAT 1 21 Nov 02:58:18 03:02:04 20° 90° (E) 03:05:48 435.822/435.867
PCSat 21 Nov 03:00:05 03:04:27 24° 328° (NNW) 03:08:50 145.827
M-CUBED/EXP-1 PRIME 21 Nov 03:05:10 03:09:36 55° 106° (ESE) 03:14:09 437.505
Gurwin Techsat 1B 21 Nov 03:06:18 03:11:20 44° 294° (WNW) 03:16:21 435.225
RS-15 21 Nov 03:08:44 03:20:51 80° 48° (NE) 03:32:15 29.354- 29.394
MOZHAYETS 4 21 Nov 03:10:23 03:14:39 39° 263° (W) 03:18:57
CUBESAT XI-V 21 Nov 03:19:50 03:24:24 70° 72° (ENE) 03:29:02 437.345
KKS-1 21 Nov 03:29:56 03:33:40 27° 63° (ENE) 03:37:26 437.445
nSIGHT-1 21 Nov 03:44:57 03:47:15 18° 219° (SW) 03:49:32 .
DOVE 4 21 Nov 03:51:09 03:53:27 13° 83° (E) 03:55:43 437.250
STARS 21 Nov 03:56:10 03:59:31 21° 61° (ENE) 04:02:52 437.465
BEESAT 2 21 Nov 04:00:09 04:04:01 47° 123° (ESE) 04:07:57 435.950
AO-7 21 Nov 04:19:17 04:27:41 87° 111° (ESE) 04:36:05 .
BEESAT 21 Nov 04:23:48 04:25:40 12° 274° (W) 04:27:31 436.000
SO-50 21 Nov 04:26:48 04:30:21 21° 27° (NNE) 04:33:57 436.795
BEESAT 3 21 Nov 04:27:43 04:31:29 38° 319° (NW) 04:35:16 437.485
ISS 21 Nov 04:28:28 04:29:20 11° 225° (SW) 04:30:13 437.550
ITAMSAT 1 21 Nov 04:36:49 04:42:02 68° 289° (WNW) 04:47:11 435.822/435.867
AO-85 21 Nov 04:37:14 04:40:57 43° 122° (ESE) 04:44:51 145.980
M-CUBED/EXP-1 PRIME 21 Nov 04:40:08 04:43:41 24° 303° (WNW) 04:47:20 437.505
YUBILEINY 21 Nov 04:41:30 04:49:01 34° 82° (E) 04:56:34 435.215
PCSat 21 Nov 04:47:34 04:49:53 13° 353° (N) 04:52:12 145.827
CUBESAT XI-V 21 Nov 04:59:30 05:02:17 16° 272° (W) 05:05:06 437.345
KKS-1 21 Nov 05:05:48 05:10:03 41° 261° (W) 05:14:20 437.445
RS-15 21 Nov 05:21:58 05:32:14 37° 254° (WSW) 05:42:03 29.354- 29.394
DOVE 4 21 Nov 05:26:42 05:32:00 82° 103° (ESE) 05:37:02 437.250
STARS 21 Nov 05:31:11 05:35:31 53° 259° (W) 05:39:54 437.465
KAITUO 1B 21 Nov 05:33:12 05:35:22 15° 90° (E) 05:37:31 145.475/437.950
BEESAT 2 21 Nov 05:38:22 05:41:55 29° 323° (NW) 05:45:31 435.950
STRAND 1 21 Nov 05:40:39 05:45:05 30° 62° (ENE) 05:49:31 437.568
XW-2D 21 Nov 05:46:05 05:49:23 27° 95° (E) 05:52:40 145.860 - 145.880
XW-2B 21 Nov 06:00:43 06:04:17 37° 97° (E) 06:07:51 145.730 - 145.750
CUTE-I 21 Nov 06:05:30 06:10:28 37° 96° (E) 06:15:24 437.470
SO-50 21 Nov 06:06:53 06:11:32 79° 50° (NE) 06:16:13 436.795
BEESAT 3 21 Nov 06:08:20 06:10:06 12° 341° (NNW) 06:11:51 437.485
AO-7 21 Nov 06:12:47 06:19:37 30° 312° (NW) 06:26:29 .
NUDT-PHONESAT 21 Nov 06:17:36 06:21:08 40° 98° (E) 06:24:38 437.300
AO-85 21 Nov 06:17:57 06:21:29 30° 324° (NW) 06:25:14 145.980
ITAMSAT 1 21 Nov 06:18:08 06:20:33 13° 309° (NW) 06:22:59 435.822/435.867
CUTE 1.7 + AOD 2 21 Nov 06:21:15 06:24:15 18° 91° (E) 06:27:15 437.475
XW-2C 21 Nov 06:26:09 06:29:57 74° 102° (ESE) 06:33:46 145.795 - 145.815
LilacSat-2 21 Nov 06:27:35 06:31:26 83° 102° (ESE) 06:35:17 437.200
FO-29 21 Nov 06:30:54 06:36:50 32° 56° (NE) 06:43:16 435.910
PCSat 21 Nov 06:32:23 06:35:40 16° 20° (NNE) 06:38:56 145.827
YUBILEINY 21 Nov 06:36:32 06:45:14 66° 284° (WNW) 06:54:04 435.215
XW-2F 21 Nov 06:37:16 06:41:04 88° 285° (WNW) 06:44:53 145.980 - 146.000
HO-68 21 Nov 06:42:42 06:49:16 36° 95° (E) 06:55:46 435.675
SEEDS 21 Nov 06:52:14 06:55:41 23° 93° (E) 06:59:06 437.485
AAUSAT CUBESAT 2 21 Nov 07:01:13 07:03:21 14° 88° (E) 07:05:30 437.432
DOVE 4 21 Nov 07:05:26 07:09:00 19° 303° (WNW) 07:12:29 437.250
KAITUO 1B 21 Nov 07:05:58 07:09:39 53° 288° (WNW) 07:13:20 145.475/437.950
CUBEBUG 2 21 Nov 07:12:40 07:16:31 34° 96° (E) 07:20:17 437.445
AO-73 21 Nov 07:18:23 07:19:44 11° 87° (E) 07:21:06 145.935
STRAND 1 21 Nov 07:19:08 07:24:05 46° 261° (W) 07:29:03 437.568
BEESAT 2 21 Nov 07:19:39 07:20:55 11° 346° (NNW) 07:22:12 435.950
XW-2D 21 Nov 07:20:14 07:23:32 28° 293° (WNW) 07:26:49 145.860 - 145.880
UNISAT 6 21 Nov 07:20:34 07:21:47 11° 55° (NE) 07:23:00 437.425
TIGRISAT 21 Nov 07:24:56 07:26:14 11° 55° (NE) 07:27:31 435.000
Oscar 11 21 Nov 07:34:52 07:36:44 12° 87° (E) 07:38:35 .
XW-2B 21 Nov 07:35:19 07:38:15 22° 296° (WNW) 07:41:12 145.730 - 145.750
CUTE-I 21 Nov 07:45:35 07:50:33 39° 296° (WNW) 07:55:28 437.470
XW-2A 21 Nov 07:45:42 07:48:52 37° 98° (E) 07:52:02 145.665 - 145.685
SO-50 21 Nov 07:48:23 07:51:27 18° 248° (WSW) 07:54:33 436.795
NUDT-PHONESAT 21 Nov 07:52:02 07:54:44 19° 296° (WNW) 07:57:25 437.300
CUTE 1.7 + AOD 2 21 Nov 07:56:13 08:00:24 53° 289° (WNW) 08:04:33 437.475
ZACube-1 21 Nov 08:01:20 08:05:08 34° 96° (E) 08:08:56 437.345
AO-85 21 Nov 08:01:31 08:03:16 12° 348° (NNW) 08:05:04 145.980
XW-2C 21 Nov 08:01:55 08:03:37 13° 301° (WNW) 08:05:18 145.795 - 145.815
LilacSat-2 21 Nov 08:03:43 08:05:07 12° 301° (WNW) 08:06:32 437.200
AO-7 21 Nov 08:07:45 08:09:42 11° 338° (NNW) 08:11:39 .
